GRFFN98 EGVN-EGVN

Flight info

Callsign GRFFN98
Flight time N/A
Altitude 10000
Route NAXAT DAV/RC EGUP RTB LFA6 LFA5 LFA4 BZ
Aircraft A400/M-V/N

Departure

Time 2026-05-04 10:39
Airport RAF Brize Norton (EGVN)

Arrival

Time N/A
Airport RAF Brize Norton (EGVN)
Time Latitude Longitude Altitude Speed Heading
2026-05-04 10:19 51.75751 -1.57261 273 ft 0 kts 289°
2026-05-04 10:28 51.75752 -1.57265 273 ft 0 kts 289°
2026-05-04 10:28 51.75757 -1.57290 273 ft 5 kts 287°
2026-05-04 10:29 51.75786 -1.57329 275 ft 5 kts 344°
2026-05-04 10:29 51.75821 -1.57318 273 ft 6 kts 17°
2026-05-04 10:29 51.75875 -1.57292 273 ft 10 kts 17°
2026-05-04 10:29 51.75923 -1.57323 273 ft 0 kts 295°
2026-05-04 10:30 51.75931 -1.57395 273 ft 11 kts 275°
2026-05-04 10:30 51.75911 -1.57509 273 ft 9 kts 219°
2026-05-04 10:30 51.75839 -1.57548 273 ft 14 kts 199°
2026-05-04 10:30 51.75728 -1.57607 273 ft 19 kts 197°
2026-05-04 10:31 51.75591 -1.57680 273 ft 22 kts 200°
2026-05-04 10:31 51.75444 -1.57798 273 ft 25 kts 208°
2026-05-04 10:32 51.74635 -1.58595 273 ft 17 kts 253°
2026-05-04 10:33 51.74596 -1.58807 273 ft 21 kts 253°
2026-05-04 10:33 51.74551 -1.59049 273 ft 24 kts 253°
2026-05-04 10:33 51.74503 -1.59310 273 ft 25 kts 253°
2026-05-04 10:33 51.74454 -1.59575 273 ft 24 kts 253°
2026-05-04 10:34 51.74432 -1.59829 273 ft 22 kts 288°
2026-05-04 10:34 51.74477 -1.59974 273 ft 7 kts 299°
2026-05-04 10:34 51.74482 -1.59991 273 ft 0 kts 299°
2026-05-04 10:35 51.74483 -1.59993 273 ft 0 kts 299°
2026-05-04 10:37 51.74484 -1.59995 273 ft 1 kts 299°
2026-05-04 10:37 51.74501 -1.60026 273 ft 6 kts 317°
2026-05-04 10:37 51.74550 -1.60067 273 ft 11 kts 340°
2026-05-04 10:37 51.74628 -1.60104 274 ft 12 kts 349°
2026-05-04 10:39 51.75927 -1.53140 2130 ft 215 kts 73°
2026-05-04 10:39 51.76565 -1.50940 3096 ft 222 kts 50°
2026-05-04 10:39 51.77883 -1.49465 3886 ft 245 kts 19°
2026-05-04 10:40 51.79634 -1.49233 4625 ft 265 kts 351°
2026-05-04 10:40 51.81348 -1.50421 5374 ft 282 kts 324°
2026-05-04 10:40 51.82647 -1.52871 6128 ft 295 kts 298°
2026-05-04 10:40 51.83188 -1.56091 6882 ft 303 kts 273°
2026-05-04 10:41 51.82919 -1.59487 7632 ft 308 kts 256°
2026-05-04 10:41 51.82351 -1.62849 8379 ft 312 kts 257°
2026-05-04 10:41 51.81920 -1.66307 9137 ft 316 kts 259°
2026-05-04 10:41 51.81528 -1.69842 9744 ft 322 kts 261°
2026-05-04 10:42 51.81165 -1.73431 10008 ft 324 kts 261°
2026-05-04 10:42 51.80813 -1.77028 10045 ft 324 kts 261°
2026-05-04 10:42 51.80465 -1.80626 10039 ft 324 kts 261°
2026-05-04 10:42 51.80114 -1.84250 10037 ft 331 kts 261°
2026-05-04 10:43 51.79760 -1.87914 10037 ft 337 kts 261°
2026-05-04 10:44 51.88349 -1.99679 10044 ft 342 kts 48°
2026-05-04 10:45 51.89627 -1.96445 10047 ft 342 kts 63°
2026-05-04 10:45 51.90601 -1.92935 10045 ft 342 kts 66°
2026-05-04 10:45 51.91704 -1.89523 10044 ft 342 kts 58°
2026-05-04 10:45 51.93151 -1.86476 10046 ft 342 kts 47°
2026-05-04 10:46 51.94620 -1.83452 10046 ft 342 kts 57°
2026-05-04 10:46 51.95797 -1.80097 10045 ft 342 kts 62°
2026-05-04 10:46 51.96501 -1.77812 10045 ft 342 kts 64°
2026-05-04 10:46 51.97870 -1.73158 10045 ft 342 kts 64°
2026-05-04 10:47 51.98906 -1.69687 10045 ft 342 kts 64°
2026-05-04 10:47 51.99972 -1.66237 10045 ft 342 kts 63°
2026-05-04 10:47 52.01064 -1.62810 10045 ft 342 kts 62°
2026-05-04 10:47 52.01799 -1.60548 10045 ft 342 kts 62°
2026-05-04 10:49 52.10033 -1.35572 10045 ft 342 kts 62°
2026-05-04 10:49 52.11148 -1.32162 10045 ft 342 kts 62°
2026-05-04 10:50 52.11886 -1.29903 10045 ft 342 kts 62°
2026-05-04 10:51 52.19651 -1.06015 10052 ft 341 kts 62°
2026-05-04 10:52 52.20759 -1.02588 10053 ft 342 kts 62°
2026-05-04 10:52 52.21866 -0.99160 10053 ft 342 kts 62°
2026-05-04 10:52 52.22973 -0.95730 10053 ft 342 kts 62°
2026-05-04 10:54 52.30691 -0.71653 10053 ft 342 kts 62°
2026-05-04 10:54 52.31789 -0.68209 10052 ft 342 kts 62°
2026-05-04 10:56 52.39905 -0.44569 10045 ft 341 kts 57°
2026-05-04 10:56 52.41191 -0.41298 10045 ft 341 kts 57°
2026-05-04 10:56 52.42473 -0.38035 10045 ft 341 kts 57°
2026-05-04 10:57 52.43776 -0.34779 9498 ft 342 kts 54°
2026-05-04 10:57 52.45203 -0.31781 8310 ft 326 kts 49°
2026-05-04 10:57 52.46714 -0.29063 6866 ft 312 kts 45°
2026-05-04 10:57 52.48222 -0.26733 5303 ft 286 kts 41°
2026-05-04 10:58 52.49667 -0.24620 3900 ft 272 kts 42°
2026-05-04 10:58 52.51102 -0.22496 2772 ft 288 kts 42°
2026-05-04 10:58 52.52598 -0.20243 1959 ft 295 kts 43°
2026-05-04 10:58 52.54074 -0.17921 1232 ft 291 kts 44°
2026-05-04 10:59 52.55511 -0.15666 835 ft 289 kts 43°
2026-05-04 10:59 52.56866 -0.13228 658 ft 290 kts 53°
2026-05-04 10:59 52.57879 -0.10387 532 ft 289 kts 64°
2026-05-04 10:59 52.58732 -0.07397 485 ft 288 kts 64°
2026-05-04 11:00 52.59598 -0.04429 421 ft 287 kts 64°
2026-05-04 11:01 52.63168 0.17295 473 ft 289 kts 96°
2026-05-04 11:02 52.63001 0.20584 436 ft 289 kts 90°
2026-05-04 11:02 52.63188 0.23860 405 ft 288 kts 79°
2026-05-04 11:05 52.76949 0.61596 554 ft 288 kts 70°
2026-05-04 11:06 52.77603 0.64679 690 ft 288 kts 70°
2026-05-04 11:06 52.78301 0.67680 799 ft 266 kts 68°
2026-05-04 11:06 52.78952 0.70382 795 ft 244 kts 68°
2026-05-04 11:06 52.79525 0.72980 762 ft 239 kts 73°
2026-05-04 11:08 52.82028 0.90920 732 ft 216 kts 79°
2026-05-04 11:10 52.87015 0.99595 803 ft 156 kts 328°
2026-05-04 11:12 52.90255 0.91594 733 ft 132 kts 261°
2026-05-04 11:12 52.90084 0.90093 833 ft 133 kts 260°
2026-05-04 11:12 52.89912 0.88606 924 ft 133 kts 260°
2026-05-04 11:12 52.89626 0.87122 940 ft 134 kts 245°
2026-05-04 11:13 52.89176 0.85773 941 ft 134 kts 239°
2026-05-04 11:13 52.88669 0.84471 941 ft 134 kts 237°
2026-05-04 11:13 52.88140 0.83196 940 ft 134 kts 236°
2026-05-04 11:13 52.87610 0.81945 941 ft 134 kts 235°
2026-05-04 11:14 52.87074 0.80681 939 ft 134 kts 236°
2026-05-04 11:14 52.86537 0.79410 940 ft 135 kts 236°
2026-05-04 11:14 52.86001 0.78134 939 ft 136 kts 236°
2026-05-04 11:16 52.82467 0.75737 920 ft 146 kts 68°
2026-05-04 11:16 52.82833 0.77252 851 ft 138 kts 65°
2026-05-04 11:16 52.83264 0.78678 929 ft 139 kts 60°